Time,TemperatureF,DewpointF,PressureIn,WindDirection,WindDirectionDegrees,WindSpeedMPH,WindSpeedGustMPH,Humidity,HourlyPrecipIn,Conditions,Clouds,dailyrainin,SoftwareType,DateUTC
2013-03-27 00:00:00,26.1,23.0,30.33,WSW,239,0.0,0.0,88,0.00,,FEW040,0.00,VWS V14.01,2013-03-27 05:00:00,
2013-03-27 00:05:00,26.2,23.1,30.33,WSW,239,0.0,1.0,88,0.00,,CLR,0.00,VWS V14.01,2013-03-27 05:05:00,
2013-03-27 00:10:00,26.8,23.7,30.33,West,269,1.0,1.0,88,0.00,,CLR,0.00,VWS V14.01,2013-03-27 05:10:00,
2013-03-27 00:15:00,27.0,23.4,30.33,West,277,0.0,1.0,86,0.00,,CLR,0.00,VWS V14.01,2013-03-27 05:15:00,
2013-03-27 00:20:00,26.7,23.1,30.33,West,277,1.0,1.0,86,0.00,,CLR,0.00,VWS V14.01,2013-03-27 05:20:00,
2013-03-27 00:25:00,26.6,23.3,30.34,West,269,0.0,1.0,87,0.00,,CLR,0.00,VWS V14.01,2013-03-27 05:25:00,
2013-03-27 00:30:00,26.6,23.3,30.34,West,270,0.0,1.0,87,0.00,,CLR,0.00,VWS V14.01,2013-03-27 05:30:00,
2013-03-27 00:35:00,26.7,23.4,30.34,West,270,0.0,1.0,87,0.00,,CLR,0.00,VWS V14.01,2013-03-27 05:35:00,
2013-03-27 00:40:00,26.8,23.5,30.34,West,270,0.0,1.0,87,0.00,,CLR,0.00,VWS V14.01,2013-03-27 05:40:00,
2013-03-27 00:45:00,27.0,23.6,30.34,West,271,0.0,1.0,87,0.00,,CLR,0.00,VWS V14.01,2013-03-27 05:45:00,
2013-03-27 00:50:00,27.0,23.6,30.34,West,271,0.0,1.0,87,0.00,,CLR,0.00,VWS V14.01,2013-03-27 05:50:00,
2013-03-27 00:55:00,26.9,23.6,30.34,West,272,0.0,1.0,87,0.00,,CLR,0.00,VWS V14.01,2013-03-27 05:55:00,
2013-03-27 01:00:00,26.8,23.5,30.34,West,271,0.0,1.0,87,0.00,,CLR,0.00,VWS V14.01,2013-03-27 06:00:00,
2013-03-27 01:05:00,26.7,23.4,30.34,West,271,0.0,1.0,87,0.00,,CLR,0.00,VWS V14.01,2013-03-27 06:05:00,
2013-03-27 01:10:00,26.7,23.4,30.34,West,280,0.0,1.0,87,0.00,,CLR,0.00,VWS V14.01,2013-03-27 06:10:00,
2013-03-27 01:15:00,26.7,23.4,30.34,West,279,0.0,1.0,87,0.00,,CLR,0.00,VWS V14.01,2013-03-27 06:15:00,
2013-03-27 01:20:00,26.7,23.4,30.34,West,280,0.0,1.0,87,0.00,,CLR,0.00,VWS V14.01,2013-03-27 06:20:00,
2013-03-27 01:25:00,26.7,23.4,30.34,West,279,0.0,1.0,87,0.00,,CLR,0.00,VWS V14.01,2013-03-27 06:25:00,
2013-03-27 01:30:00,26.8,23.5,30.34,West,279,0.0,1.0,87,0.00,,CLR,0.00,VWS V14.01,2013-03-27 06:30:00,
2013-03-27 01:35:00,26.8,23.5,30.34,West,280,0.0,0.0,87,0.00,,CLR,0.00,VWS V14.01,2013-03-27 06:35:00,
2013-03-27 01:40:00,26.9,23.6,30.34,West,280,0.0,1.0,87,0.00,,CLR,0.00,VWS V14.01,2013-03-27 06:40:00,
2013-03-27 01:45:00,26.9,23.6,30.34,West,280,0.0,1.0,87,0.00,,CLR,0.00,VWS V14.01,2013-03-27 06:45:00,
2013-03-27 01:50:00,27.0,23.4,30.34,West,279,0.0,1.0,86,0.00,,CLR,0.00,VWS V14.01,2013-03-27 06:50:00,
2013-03-27 01:55:00,27.1,23.5,30.34,West,279,0.0,1.0,86,0.00,,CLR,0.00,VWS V14.01,2013-03-27 06:55:00,
2013-03-27 02:00:00,27.2,23.6,30.34,West,279,0.0,1.0,86,0.00,,CLR,0.00,VWS V14.01,2013-03-27 07:00:00,
2013-03-27 02:05:00,27.2,23.6,30.34,West,280,0.0,0.0,86,0.00,,CLR,0.00,VWS V14.01,2013-03-27 07:05:00,
2013-03-27 02:10:00,27.2,23.6,30.34,West,279,0.0,0.0,86,0.00,,CLR,0.00,VWS V14.01,2013-03-27 07:10:00,
2013-03-27 02:15:00,27.2,23.6,30.33,West,280,0.0,0.0,86,0.00,,CLR,0.00,VWS V14.01,2013-03-27 07:15:00,
2013-03-27 02:20:00,27.2,23.6,30.33,West,280,0.0,0.0,86,0.00,,CLR,0.00,VWS V14.01,2013-03-27 07:20:00,
2013-03-27 02:25:00,27.1,23.5,30.33,West,280,0.0,0.0,86,0.00,,CLR,0.00,VWS V14.01,2013-03-27 07:25:00,
2013-03-27 02:30:00,26.9,23.6,30.33,West,279,0.0,0.0,87,0.00,,CLR,0.00,VWS V14.01,2013-03-27 07:30:00,
2013-03-27 02:35:00,26.9,23.6,30.33,West,280,0.0,0.0,87,0.00,,CLR,0.00,VWS V14.01,2013-03-27 07:35:00,
2013-03-27 02:40:00,27.0,23.6,30.33,West,280,0.0,0.0,87,0.00,,CLR,0.00,VWS V14.01,2013-03-27 07:40:00,
2013-03-27 02:45:00,26.9,23.6,30.33,West,280,0.0,0.0,87,0.00,,CLR,0.00,VWS V14.01,2013-03-27 07:45:00,
2013-03-27 02:50:00,26.7,23.4,30.33,West,280,0.0,0.0,87,0.00,,CLR,0.00,VWS V14.01,2013-03-27 07:50:00,
2013-03-27 02:55:00,26.6,23.5,30.33,West,280,0.0,0.0,88,0.00,,CLR,0.00,VWS V14.01,2013-03-27 07:55:00,
2013-03-27 03:00:00,26.6,23.5,30.33,West,279,0.0,0.0,88,0.00,,CLR,0.00,VWS V14.01,2013-03-27 08:00:00,
2013-03-27 03:05:00,26.6,23.5,30.32,West,279,0.0,0.0,88,0.00,,CLR,0.00,VWS V14.01,2013-03-27 08:05:00,
2013-03-27 03:10:00,26.5,23.2,30.32,West,280,0.0,0.0,87,0.00,,CLR,0.00,VWS V14.01,2013-03-27 08:10:00,
2013-03-27 03:15:00,26.3,23.2,30.32,West,279,0.0,0.0,88,0.00,,CLR,0.00,VWS V14.01,2013-03-27 08:15:00,
2013-03-27 03:20:00,26.5,23.4,30.32,West,280,0.0,0.0,88,0.00,,CLR,0.00,VWS V14.01,2013-03-27 08:20:00,
2013-03-27 03:25:00,26.5,23.2,30.32,West,279,0.0,0.0,87,0.00,,CLR,0.00,VWS V14.01,2013-03-27 08:25:00,
2013-03-27 03:30:00,26.5,23.2,30.32,West,279,0.0,0.0,87,0.00,,CLR,0.00,VWS V14.01,2013-03-27 08:30:00,
2013-03-27 03:35:00,26.5,23.2,30.32,West,279,0.0,0.0,87,0.00,,CLR,0.00,VWS V14.01,2013-03-27 08:35:00,
2013-03-27 03:40:00,26.5,23.2,30.32,West,279,0.0,0.0,87,0.00,,CLR,0.00,VWS V14.01,2013-03-27 08:40:00,
2013-03-27 03:45:00,26.3,23.0,30.32,West,280,0.0,0.0,87,0.00,,CLR,0.00,VWS V14.01,2013-03-27 08:45:00,
2013-03-27 03:50:00,26.2,23.1,30.32,West,280,0.0,0.0,88,0.00,,CLR,0.00,VWS V14.01,2013-03-27 08:50:00,
2013-03-27 03:55:00,26.2,23.4,30.32,West,280,0.0,0.0,89,0.00,,CLR,0.00,VWS V14.01,2013-03-27 08:55:00,
2013-03-27 04:00:00,26.1,23.3,30.32,West,280,0.0,0.0,89,0.00,,CLR,0.00,VWS V14.01,2013-03-27 09:00:00,
2013-03-27 04:05:00,26.1,23.6,30.32,West,280,0.0,0.0,90,0.00,,CLR,0.00,VWS V14.01,2013-03-27 09:05:00,
2013-03-27 04:10:00,26.0,23.5,30.32,West,280,0.0,0.0,90,0.00,,CLR,0.00,VWS V14.01,2013-03-27 09:10:00,
2013-03-27 04:15:00,25.8,23.0,30.32,West,280,0.0,0.0,89,0.00,,CLR,0.00,VWS V14.01,2013-03-27 09:15:00,
2013-03-27 04:20:00,25.5,22.7,30.32,West,279,0.0,0.0,89,0.00,,CLR,0.00,VWS V14.01,2013-03-27 09:20:00,
2013-03-27 04:25:00,25.3,22.8,30.32,West,280,0.0,0.0,90,0.00,,CLR,0.00,VWS V14.01,2013-03-27 09:25:00,
2013-03-27 04:30:00,25.4,23.1,30.32,West,280,0.0,0.0,91,0.00,,CLR,0.00,VWS V14.01,2013-03-27 09:30:00,
2013-03-27 04:35:00,25.5,23.2,30.33,West,279,0.0,1.0,91,0.00,,CLR,0.00,VWS V14.01,2013-03-27 09:35:00,
2013-03-27 04:40:00,25.9,23.4,30.33,West,279,0.0,1.0,90,0.00,,CLR,0.00,VWS V14.01,2013-03-27 09:40:00,
2013-03-27 04:45:00,26.0,23.5,30.33,West,280,0.0,1.0,90,0.00,,CLR,0.00,VWS V14.01,2013-03-27 09:45:00,
2013-03-27 04:50:00,25.9,23.1,30.33,West,279,0.0,1.0,89,0.00,,CLR,0.00,VWS V14.01,2013-03-27 09:50:00,
2013-03-27 04:55:00,25.9,23.4,30.33,West,279,0.0,1.0,90,0.00,,CLR,0.00,VWS V14.01,2013-03-27 09:55:00,
2013-03-27 05:00:00,25.7,22.9,30.33,West,279,0.0,1.0,89,0.00,,CLR,0.00,VWS V14.01,2013-03-27 10:00:00,
2013-03-27 05:05:00,25.4,22.9,30.33,West,280,0.0,0.0,90,0.00,,CLR,0.00,VWS V14.01,2013-03-27 10:05:00,
2013-03-27 05:10:00,25.4,22.9,30.33,West,279,0.0,0.0,90,0.00,,CLR,0.00,VWS V14.01,2013-03-27 10:10:00,
2013-03-27 05:15:00,25.4,23.1,30.33,West,279,0.0,0.0,91,0.00,,CLR,0.00,VWS V14.01,2013-03-27 10:15:00,
2013-03-27 05:20:00,25.4,22.9,30.33,West,279,0.0,0.0,90,0.00,,CLR,0.00,VWS V14.01,2013-03-27 10:20:00,
2013-03-27 05:25:00,25.4,22.9,30.33,West,280,0.0,0.0,90,0.00,,CLR,0.00,VWS V14.01,2013-03-27 10:25:00,
2013-03-27 05:30:00,25.4,22.9,30.33,West,280,0.0,0.0,90,0.00,,CLR,0.00,VWS V14.01,2013-03-27 10:30:00,
2013-03-27 05:35:00,25.5,23.0,30.33,West,279,0.0,0.0,90,0.00,,CLR,0.00,VWS V14.01,2013-03-27 10:35:00,
2013-03-27 05:40:00,25.5,22.7,30.34,West,280,0.0,0.0,89,0.00,,CLR,0.00,VWS V14.01,2013-03-27 10:40:00,
2013-03-27 05:45:00,25.7,22.9,30.33,West,279,0.0,0.0,89,0.00,,CLR,0.00,VWS V14.01,2013-03-27 10:45:00,
2013-03-27 05:50:00,25.6,22.8,30.33,West,280,0.0,0.0,89,0.00,,CLR,0.00,VWS V14.01,2013-03-27 10:50:00,
2013-03-27 05:55:00,25.7,22.9,30.33,West,279,0.0,0.0,89,0.00,,CLR,0.00,VWS V14.01,2013-03-27 10:55:00,
2013-03-27 06:00:00,25.6,22.8,30.33,West,279,0.0,0.0,89,0.00,,CLR,0.00,VWS V14.01,2013-03-27 11:00:00,
2013-03-27 06:05:00,25.6,23.1,30.33,West,279,0.0,0.0,90,0.00,,CLR,0.00,VWS V14.01,2013-03-27 11:05:00,
2013-03-27 06:10:00,25.5,23.0,30.33,West,279,0.0,0.0,90,0.00,,CLR,0.00,VWS V14.01,2013-03-27 11:10:00,
2013-03-27 06:15:00,25.5,23.0,30.33,West,280,0.0,0.0,90,0.00,,CLR,0.00,VWS V14.01,2013-03-27 11:15:00,
2013-03-27 06:20:00,25.4,22.9,30.33,West,280,0.0,0.0,90,0.00,,CLR,0.00,VWS V14.01,2013-03-27 11:20:00,
2013-03-27 06:25:00,25.3,22.8,30.33,West,279,0.0,0.0,90,0.00,,CLR,0.00,VWS V14.01,2013-03-27 11:25:00,
2013-03-27 06:30:00,25.1,22.6,30.33,West,279,0.0,0.0,90,0.00,,CLR,0.00,VWS V14.01,2013-03-27 11:30:00,
2013-03-27 06:35:00,25.0,22.5,30.33,West,279,0.0,0.0,90,0.00,,CLR,0.00,VWS V14.01,2013-03-27 11:35:00,
2013-03-27 06:40:00,24.8,22.3,30.33,West,280,0.0,0.0,90,0.00,,CLR,0.00,VWS V14.01,2013-03-27 11:40:00,
2013-03-27 06:45:00,24.8,22.5,30.33,West,279,0.0,0.0,91,0.00,,CLR,0.00,VWS V14.01,2013-03-27 11:45:00,
2013-03-27 06:50:00,24.8,22.5,30.33,West,279,0.0,0.0,91,0.00,,CLR,0.00,VWS V14.01,2013-03-27 11:50:00,
2013-03-27 06:55:00,24.7,22.5,30.33,West,279,0.0,0.0,91,0.00,,CLR,0.00,VWS V14.01,2013-03-27 11:55:00,
2013-03-27 07:00:00,24.7,22.5,30.33,West,280,0.0,0.0,91,0.00,,CLR,0.00,VWS V14.01,2013-03-27 12:00:00,
2013-03-27 07:05:00,24.7,22.5,30.34,West,279,0.0,0.0,91,0.00,,CLR,0.00,VWS V14.01,2013-03-27 12:05:00,
2013-03-27 07:10:00,24.8,22.5,30.34,West,280,0.0,0.0,91,0.00,,CLR,0.00,VWS V14.01,2013-03-27 12:10:00,
2013-03-27 07:15:00,24.7,22.5,30.34,West,280,0.0,0.0,91,0.00,,CLR,0.00,VWS V14.01,2013-03-27 12:15:00,
2013-03-27 07:20:00,24.8,22.5,30.34,West,280,0.0,0.0,91,0.00,,CLR,0.00,VWS V14.01,2013-03-27 12:20:00,
2013-03-27 07:25:00,24.9,22.6,30.34,West,279,0.0,0.0,91,0.00,,CLR,0.00,VWS V14.01,2013-03-27 12:25:00,
2013-03-27 07:30:00,25.1,22.9,30.34,West,279,0.0,0.0,91,0.00,,CLR,0.00,VWS V14.01,2013-03-27 12:30:00,
2013-03-27 07:35:00,25.5,23.2,30.34,West,279,0.0,0.0,91,0.00,,CLR,0.00,VWS V14.01,2013-03-27 12:35:00,
2013-03-27 07:40:00,26.1,23.6,30.34,West,280,0.0,0.0,90,0.00,,CLR,0.00,VWS V14.01,2013-03-27 12:40:00,
2013-03-27 07:45:00,26.7,23.9,30.34,NE,53,0.0,1.0,89,0.00,,CLR,0.00,VWS V14.01,2013-03-27 12:45:00,
2013-03-27 07:50:00,26.9,23.6,30.34,NE,52,0.0,1.0,87,0.00,,CLR,0.00,VWS V14.01,2013-03-27 12:50:00,
2013-03-27 07:55:00,27.1,23.8,30.35,NE,53,0.0,1.0,87,0.00,,CLR,0.00,VWS V14.01,2013-03-27 12:55:00,
2013-03-27 08:00:00,27.5,24.1,30.35,NE,53,0.0,1.0,87,0.00,,,0.00,VWS V14.01,2013-03-27 13:00:00,
2013-03-27 08:05:00,28.0,24.4,30.35,NE,53,0.0,1.0,86,0.00,,,0.00,VWS V14.01,2013-03-27 13:05:00,
2013-03-27 08:10:00,28.4,24.5,30.35,NE,53,0.0,1.0,85,0.00,,,0.00,VWS V14.01,2013-03-27 13:10:00,
2013-03-27 08:15:00,28.9,24.7,30.35,NE,53,0.0,1.0,84,0.00,,,0.00,VWS V14.01,2013-03-27 13:15:00,
2013-03-27 08:20:00,29.4,24.9,30.35,NE,53,0.0,1.0,83,0.00,,,0.00,VWS V14.01,2013-03-27 13:20:00,
2013-03-27 08:25:00,29.8,24.7,30.35,NE,52,0.0,1.0,81,0.00,,,0.00,VWS V14.01,2013-03-27 13:25:00,
2013-03-27 08:29:00,30.2,25.1,30.35,NE,52,0.0,1.0,81,0.00,,,0.00,VWS V14.01,2013-03-27 13:29:00,
2013-03-27 08:34:00,30.4,25.0,30.35,NE,53,0.0,1.0,80,0.00,,,0.00,VWS V14.01,2013-03-27 13:34:00,
2013-03-27 08:39:00,30.5,25.1,30.35,NE,53,0.0,1.0,80,0.00,,,0.00,VWS V14.01,2013-03-27 13:39:00,
2013-03-27 08:44:00,30.8,25.4,30.35,NE,53,0.0,1.0,80,0.00,,,0.00,VWS V14.01,2013-03-27 13:44:00,
2013-03-27 08:49:00,31.3,25.6,30.35,ENE,60,0.0,1.0,79,0.00,,,0.00,VWS V14.01,2013-03-27 13:49:00,
2013-03-27 08:54:00,31.2,25.1,30.35,ENE,70,1.0,2.0,78,0.00,,,0.00,VWS V14.01,2013-03-27 13:54:00,
2013-03-27 08:59:00,31.3,25.2,30.35,ENE,71,0.0,2.0,78,0.00,,CLR,0.00,VWS V14.01,2013-03-27 13:59:00,
2013-03-27 09:04:00,31.5,25.8,30.35,ENE,75,1.0,1.0,79,0.00,,CLR,0.00,VWS V14.01,2013-03-27 14:04:00,
2013-03-27 09:09:00,31.8,26.0,30.35,ENE,63,1.0,2.0,79,0.00,,CLR,0.00,VWS V14.01,2013-03-27 14:09:00,
2013-03-27 09:14:00,32.1,26.0,30.35,ENE,72,1.0,2.0,78,0.00,,CLR,0.00,VWS V14.01,2013-03-27 14:14:00,
2013-03-27 09:19:00,32.4,26.3,30.35,ENE,75,2.0,2.0,78,0.00,,CLR,0.00,VWS V14.01,2013-03-27 14:19:00,
2013-03-27 09:24:00,32.4,26.6,30.35,ESE,119,2.0,2.0,79,0.00,,CLR,0.00,VWS V14.01,2013-03-27 14:24:00,
2013-03-27 09:29:00,32.2,26.4,30.35,ESE,119,2.0,3.0,79,0.00,,CLR,0.00,VWS V14.01,2013-03-27 14:29:00,
2013-03-27 09:34:00,32.1,26.0,30.35,ESE,109,3.0,3.0,78,0.00,,CLR,0.00,VWS V14.01,2013-03-27 14:34:00,
2013-03-27 09:39:00,32.2,26.7,30.35,SE,124,2.0,3.0,80,0.00,,CLR,0.00,VWS V14.01,2013-03-27 14:39:00,
2013-03-27 09:44:00,32.4,26.6,30.35,ESE,120,3.0,3.0,79,0.00,,CLR,0.00,VWS V14.01,2013-03-27 14:44:00,
2013-03-27 09:49:00,32.6,26.2,30.35,ESE,119,2.0,4.0,77,0.00,,CLR,0.00,VWS V14.01,2013-03-27 14:49:00,
2013-03-27 09:54:00,32.5,25.5,30.35,ESE,107,3.0,4.0,75,0.00,,CLR,0.00,VWS V14.01,2013-03-27 14:54:00,
2013-03-27 09:59:00,32.9,26.2,30.35,ESE,109,2.0,4.0,76,0.00,,CLR,0.00,VWS V14.01,2013-03-27 14:59:00,
2013-03-27 10:04:00,33.1,25.7,30.35,SE,125,2.0,4.0,74,0.00,,CLR,0.00,VWS V14.01,2013-03-27 15:04:00,
2013-03-27 10:09:00,33.3,25.9,30.36,ESE,114,2.0,4.0,74,0.00,,CLR,0.00,VWS V14.01,2013-03-27 15:09:00,
2013-03-27 10:14:00,33.8,26.7,30.36,ENE,71,2.0,4.0,75,0.00,,CLR,0.00,VWS V14.01,2013-03-27 15:14:00,
2013-03-27 10:19:00,34.3,26.6,30.36,East,93,0.0,4.0,73,0.00,,CLR,0.00,VWS V14.01,2013-03-27 15:19:00,
2013-03-27 10:24:00,34.4,27.0,30.35,ESE,122,4.0,4.0,74,0.00,,CLR,0.00,VWS V14.01,2013-03-27 15:24:00,
2013-03-27 10:29:00,34.1,26.4,30.36,ESE,122,4.0,4.0,73,0.00,,CLR,0.00,VWS V14.01,2013-03-27 15:29:00,
2013-03-27 10:34:00,34.0,26.3,30.36,East,94,4.0,5.0,73,0.00,,CLR,0.00,VWS V14.01,2013-03-27 15:34:00,
2013-03-27 10:39:00,34.0,26.3,30.36,ESE,110,3.0,5.0,73,0.00,,CLR,0.00,VWS V14.01,2013-03-27 15:39:00,
2013-03-27 10:44:00,34.0,26.6,30.36,SE,146,3.0,5.0,74,0.00,,CLR,0.00,VWS V14.01,2013-03-27 15:44:00,
2013-03-27 10:49:00,34.2,26.5,30.36,SE,141,3.0,5.0,73,0.00,,CLR,0.00,VWS V14.01,2013-03-27 15:49:00,
2013-03-27 10:54:00,34.3,26.9,30.36,SE,145,4.0,5.0,74,0.00,,CLR,0.00,VWS V14.01,2013-03-27 15:54:00,
2013-03-27 10:59:00,34.3,26.2,30.36,SE,139,4.0,5.0,72,0.00,,CLR,0.00,VWS V14.01,2013-03-27 15:59:00,
2013-03-27 11:04:00,34.4,26.3,30.36,SE,139,4.0,4.0,72,0.00,,CLR,0.00,VWS V14.01,2013-03-27 16:04:00,
2013-03-27 11:09:00,34.5,25.7,30.36,SE,142,4.0,5.0,70,0.00,,CLR,0.00,VWS V14.01,2013-03-27 16:09:00,
2013-03-27 11:14:00,34.5,25.7,30.36,SE,142,4.0,5.0,70,0.00,,CLR,0.00,VWS V14.01,2013-03-27 16:14:00,
2013-03-27 11:19:00,34.6,26.2,30.36,SE,146,4.0,5.0,71,0.00,,CLR,0.00,VWS V14.01,2013-03-27 16:19:00,
2013-03-27 11:24:00,34.6,26.2,30.36,SSE,155,4.0,6.0,71,0.00,,CLR,0.00,VWS V14.01,2013-03-27 16:24:00,
2013-03-27 11:29:00,34.7,27.0,30.36,SE,135,5.0,6.0,73,0.00,,CLR,0.00,VWS V14.01,2013-03-27 16:29:00,
2013-03-27 11:34:00,34.8,26.4,30.36,SE,138,4.0,6.0,71,0.00,,CLR,0.00,VWS V14.01,2013-03-27 16:34:00,
2013-03-27 11:39:00,34.8,25.7,30.36,SE,133,4.0,6.0,69,0.00,,CLR,0.00,VWS V14.01,2013-03-27 16:39:00,
2013-03-27 11:44:00,34.8,25.3,30.36,SE,138,3.0,6.0,68,0.00,,CLR,0.00,VWS V14.01,2013-03-27 16:44:00,
2013-03-27 11:49:00,34.9,25.8,30.36,ESE,122,4.0,6.0,69,0.00,,CLR,0.00,VWS V14.01,2013-03-27 16:49:00,
2013-03-27 11:54:00,34.9,25.4,30.36,ESE,116,7.0,7.0,68,0.00,,CLR,0.00,VWS V14.01,2013-03-27 16:54:00,
2013-03-27 11:59:00,34.9,25.4,30.36,ESE,105,6.0,7.0,68,0.00,,CLR,0.00,VWS V14.01,2013-03-27 16:59:00,
2013-03-27 12:04:00,35.1,26.7,30.36,ESE,122,5.0,7.0,71,0.00,,CLR,0.00,VWS V14.01,2013-03-27 17:04:00,
2013-03-27 12:09:00,35.2,26.4,30.36,SE,142,6.0,7.0,70,0.00,,CLR,0.00,VWS V14.01,2013-03-27 17:09:00,
2013-03-27 12:14:00,35.2,26.1,30.36,SE,142,4.0,7.0,69,0.00,,CLR,0.00,VWS V14.01,2013-03-27 17:14:00,
2013-03-27 12:19:00,35.3,26.5,30.36,ESE,105,4.0,7.0,70,0.00,,CLR,0.00,VWS V14.01,2013-03-27 17:19:00,
2013-03-27 12:24:00,35.3,26.2,30.36,ESE,110,6.0,7.0,69,0.00,,CLR,0.00,VWS V14.01,2013-03-27 17:24:00,
2013-03-27 12:29:00,35.3,26.2,30.36,SSE,148,5.0,8.0,69,0.00,,CLR,0.00,VWS V14.01,2013-03-27 17:29:00,
2013-03-27 12:34:00,34.8,25.7,30.36,SE,134,3.0,7.0,69,0.00,,CLR,0.00,VWS V14.01,2013-03-27 17:34:00,
2013-03-27 12:39:00,35.0,26.6,30.36,SSE,160,3.0,7.0,71,0.00,,CLR,0.00,VWS V14.01,2013-03-27 17:39:00,
2013-03-27 12:44:00,35.3,25.8,30.36,South,177,4.0,9.0,68,0.00,,CLR,0.00,VWS V14.01,2013-03-27 17:44:00,
2013-03-27 12:49:00,36.1,26.9,30.36,SSW,212,6.0,9.0,69,0.00,,CLR,0.00,VWS V14.01,2013-03-27 17:49:00,
2013-03-27 12:54:00,36.7,26.8,30.36,SE,141,6.0,9.0,67,0.00,,CLR,0.00,VWS V14.01,2013-03-27 17:54:00,
2013-03-27 12:59:00,36.4,25.8,30.36,SSE,148,3.0,9.0,65,0.00,,FEW028,0.00,VWS V14.01,2013-03-27 17:59:00,
2013-03-27 13:04:00,36.2,26.3,30.36,South,181,4.0,6.0,67,0.00,,FEW028,0.00,VWS V14.01,2013-03-27 18:04:00,
2013-03-27 13:09:00,36.7,26.1,30.36,SSE,165,4.0,7.0,65,0.00,,FEW028,0.00,VWS V14.01,2013-03-27 18:09:00,
2013-03-27 13:14:00,37.1,26.1,30.36,SSE,155,4.0,8.0,64,0.00,,FEW028,0.00,VWS V14.01,2013-03-27 18:14:00,
2013-03-27 13:19:00,37.4,26.0,30.36,SW,221,4.0,8.0,63,0.00,,FEW028,0.00,VWS V14.01,2013-03-27 18:19:00,
2013-03-27 13:24:00,37.6,26.2,30.35,SSE,167,3.0,8.0,63,0.00,,FEW028,0.00,VWS V14.01,2013-03-27 18:24:00,
2013-03-27 13:29:00,38.0,26.9,30.35,SSE,153,5.0,8.0,64,0.00,,FEW028,0.00,VWS V14.01,2013-03-27 18:29:00,
2013-03-27 13:34:00,37.8,26.7,30.35,SSE,150,4.0,6.0,64,0.00,,FEW028,0.00,VWS V14.01,2013-03-27 18:34:00,
2013-03-27 13:39:00,37.7,27.0,30.35,SSE,152,5.0,6.0,65,0.00,,FEW028,0.00,VWS V14.01,2013-03-27 18:39:00,
2013-03-27 13:44:00,37.5,26.5,30.35,SE,129,3.0,7.0,64,0.00,,FEW028,0.00,VWS V14.01,2013-03-27 18:44:00,
2013-03-27 13:49:00,37.1,26.8,30.35,SE,136,4.0,9.0,66,0.00,,FEW028,0.00,VWS V14.01,2013-03-27 18:49:00,
2013-03-27 13:54:00,36.4,26.1,30.35,SE,129,3.0,9.0,66,0.00,,FEW028,0.00,VWS V14.01,2013-03-27 18:54:00,
2013-03-27 13:59:00,36.6,27.0,30.35,SSW,196,2.0,9.0,68,0.00,,FEW028,0.00,VWS V14.01,2013-03-27 18:59:00,
2013-03-27 14:04:00,37.6,26.9,30.35,SSW,208,4.0,8.0,65,0.00,,FEW028,0.00,VWS V14.01,2013-03-27 19:04:00,
2013-03-27 14:09:00,37.6,26.2,30.34,SSW,201,4.0,8.0,63,0.00,,FEW028,0.00,VWS V14.01,2013-03-27 19:09:00,
2013-03-27 14:14:00,37.4,26.4,30.34,South,190,2.0,8.0,64,0.00,,FEW028,0.00,VWS V14.01,2013-03-27 19:14:00,
2013-03-27 14:19:00,38.2,26.7,30.34,SW,226,5.0,8.0,63,0.00,,FEW028,0.00,VWS V14.01,2013-03-27 19:19:00,
2013-03-27 14:24:00,38.2,26.3,30.34,SW,232,1.0,8.0,62,0.00,,FEW028,0.00,VWS V14.01,2013-03-27 19:24:00,
2013-03-27 14:29:00,38.3,26.4,30.34,SSE,165,5.0,8.0,62,0.00,,FEW028,0.00,VWS V14.01,2013-03-27 19:29:00,
2013-03-27 14:34:00,37.7,26.6,30.34,SSE,148,4.0,5.0,64,0.00,,FEW028,0.00,VWS V14.01,2013-03-27 19:34:00,
2013-03-27 14:39:00,37.3,27.0,30.34,SSE,156,3.0,5.0,66,0.00,,FEW028,0.00,VWS V14.01,2013-03-27 19:39:00,
2013-03-27 14:44:00,37.8,26.7,30.33,SSW,208,3.0,6.0,64,0.00,,FEW028,0.00,VWS V14.01,2013-03-27 19:44:00,
2013-03-27 14:49:00,38.1,26.6,30.33,SSW,203,3.0,6.0,63,0.00,,FEW028,0.00,VWS V14.01,2013-03-27 19:49:00,
2013-03-27 14:54:00,38.4,26.9,30.33,SW,214,4.0,7.0,63,0.00,,FEW028,0.00,VWS V14.01,2013-03-27 19:54:00,
2013-03-27 14:59:00,38.5,26.6,30.33,SSE,152,2.0,7.0,62,0.00,,FEW028,0.00,VWS V14.01,2013-03-27 19:59:00,
2013-03-27 15:04:00,38.4,26.9,30.33,SE,129,2.0,6.0,63,0.00,,FEW028,0.00,VWS V14.01,2013-03-27 20:04:00,
2013-03-27 15:09:00,38.3,26.8,30.33,SE,129,3.0,6.0,63,0.00,,FEW028,0.00,VWS V14.01,2013-03-27 20:09:00,
2013-03-27 15:14:00,38.4,26.5,30.33,SSW,210,3.0,6.0,62,0.00,,FEW028,0.00,VWS V14.01,2013-03-27 20:14:00,
2013-03-27 15:19:00,38.7,26.8,30.32,SW,223,1.0,6.0,62,0.00,,FEW028,0.00,VWS V14.01,2013-03-27 20:19:00,
2013-03-27 15:24:00,39.3,27.4,30.32,SSE,155,5.0,6.0,62,0.00,,FEW028,0.00,VWS V14.01,2013-03-27 20:24:00,
2013-03-27 15:29:00,39.2,26.9,30.32,SSW,207,4.0,6.0,61,0.00,,FEW028,0.00,VWS V14.01,2013-03-27 20:29:00,
2013-03-27 15:34:00,39.3,26.6,30.32,SW,218,3.0,5.0,60,0.00,,FEW028,0.00,VWS V14.01,2013-03-27 20:34:00,
2013-03-27 15:39:00,39.3,26.2,30.32,SSW,212,2.0,5.0,59,0.00,,FEW028,0.00,VWS V14.01,2013-03-27 20:39:00,
2013-03-27 15:44:00,39.6,26.5,30.32,SE,134,5.0,5.0,59,0.00,,FEW028,0.00,VWS V14.01,2013-03-27 20:44:00,
2013-03-27 15:49:00,39.1,27.6,30.32,SSW,204,5.0,6.0,63,0.00,,FEW028,0.00,VWS V14.01,2013-03-27 20:49:00,
2013-03-27 15:54:00,38.4,25.7,30.32,SSW,203,2.0,6.0,60,0.00,,FEW028,0.00,VWS V14.01,2013-03-27 20:54:00,
2013-03-27 15:59:00,38.5,26.6,30.31,SE,134,2.0,6.0,62,0.00,,CLR,0.00,VWS V14.01,2013-03-27 20:59:00,
2013-03-27 16:04:00,38.9,27.0,30.31,SSE,155,3.0,4.0,62,0.00,,CLR,0.00,VWS V14.01,2013-03-27 21:04:00,
2013-03-27 16:09:00,38.6,26.7,30.31,ESE,121,3.0,6.0,62,0.00,,CLR,0.00,VWS V14.01,2013-03-27 21:09:00,
2013-03-27 16:14:00,38.5,26.6,30.31,ESE,107,1.0,6.0,62,0.00,,CLR,0.00,VWS V14.01,2013-03-27 21:14:00,
2013-03-27 16:19:00,38.5,27.0,30.31,SE,145,2.0,6.0,63,0.00,,CLR,0.00,VWS V14.01,2013-03-27 21:19:00,
2013-03-27 16:24:00,38.7,27.2,30.31,East,97,3.0,6.0,63,0.00,,CLR,0.00,VWS V14.01,2013-03-27 21:24:00,
2013-03-27 16:29:00,38.7,27.2,30.31,ESE,123,2.0,6.0,63,0.00,,CLR,0.00,VWS V14.01,2013-03-27 21:29:00,
2013-03-27 16:34:00,38.6,27.1,30.31,ESE,108,4.0,5.0,63,0.00,,CLR,0.00,VWS V14.01,2013-03-27 21:34:00,
2013-03-27 16:39:00,38.4,27.3,30.31,SSE,148,1.0,5.0,64,0.00,,CLR,0.00,VWS V14.01,2013-03-27 21:39:00,
2013-03-27 16:44:00,39.0,27.5,30.31,East,96,3.0,5.0,63,0.00,,CLR,0.00,VWS V14.01,2013-03-27 21:44:00,
2013-03-27 16:49:00,38.7,27.6,30.30,ESE,120,3.0,6.0,64,0.00,,CLR,0.00,VWS V14.01,2013-03-27 21:49:00,
2013-03-27 16:54:00,38.4,27.7,30.31,ESE,117,3.0,6.0,65,0.00,,CLR,0.00,VWS V14.01,2013-03-27 21:54:00,
2013-03-27 16:59:00,38.1,27.4,30.30,SE,126,4.0,6.0,65,0.00,,CLR,0.00,VWS V14.01,2013-03-27 21:59:00,
2013-03-27 17:04:00,38.2,27.5,30.31,ESE,122,3.0,4.0,65,0.00,,CLR,0.00,VWS V14.01,2013-03-27 22:04:00,
2013-03-27 17:09:00,38.5,27.8,30.31,ESE,121,4.0,4.0,65,0.00,,CLR,0.00,VWS V14.01,2013-03-27 22:09:00,
2013-03-27 17:14:00,38.4,28.4,30.31,East,97,3.0,5.0,67,0.00,,CLR,0.00,VWS V14.01,2013-03-27 22:14:00,
2013-03-27 17:19:00,38.6,27.9,30.31,ENE,68,2.0,5.0,65,0.00,,CLR,0.00,VWS V14.01,2013-03-27 22:19:00,
2013-03-27 17:24:00,38.4,27.7,30.31,ENE,66,2.0,5.0,65,0.00,,CLR,0.00,VWS V14.01,2013-03-27 22:24:00,
2013-03-27 17:29:00,38.2,27.5,30.31,ENE,65,1.0,5.0,65,0.00,,CLR,0.00,VWS V14.01,2013-03-27 22:29:00,
2013-03-27 17:34:00,38.2,27.9,30.31,East,84,2.0,4.0,66,0.00,,CLR,0.00,VWS V14.01,2013-03-27 22:34:00,
2013-03-27 17:39:00,38.2,27.9,30.31,ENE,75,1.0,4.0,66,0.00,,CLR,0.00,VWS V14.01,2013-03-27 22:39:00,
2013-03-27 17:44:00,38.1,27.4,30.31,East,95,2.0,4.0,65,0.00,,CLR,0.00,VWS V14.01,2013-03-27 22:44:00,
2013-03-27 17:49:00,38.0,27.7,30.31,ENE,64,3.0,4.0,66,0.00,,CLR,0.00,VWS V14.01,2013-03-27 22:49:00,
2013-03-27 17:54:00,37.9,27.6,30.31,ENE,67,2.0,4.0,66,0.00,,CLR,0.00,VWS V14.01,2013-03-27 22:54:00,
2013-03-27 17:59:00,37.7,27.4,30.31,ENE,65,2.0,4.0,66,0.00,,CLR,0.00,VWS V14.01,2013-03-27 22:59:00,
2013-03-27 18:04:00,37.6,27.3,30.31,ENE,70,2.0,3.0,66,0.00,,CLR,0.00,VWS V14.01,2013-03-27 23:04:00,
2013-03-27 18:09:00,37.6,27.3,30.31,East,84,1.0,3.0,66,0.00,,CLR,0.00,VWS V14.01,2013-03-27 23:09:00,
2013-03-27 18:14:00,37.6,27.3,30.31,ENE,65,2.0,3.0,66,0.00,,CLR,0.00,VWS V14.01,2013-03-27 23:14:00,
2013-03-27 18:19:00,37.6,26.9,30.31,ENE,75,1.0,3.0,65,0.00,,CLR,0.00,VWS V14.01,2013-03-27 23:19:00,
2013-03-27 18:24:00,37.6,27.6,30.31,ESE,103,1.0,3.0,67,0.00,,CLR,0.00,VWS V14.01,2013-03-27 23:24:00,
2013-03-27 18:29:00,37.5,27.5,30.30,ENE,76,1.0,3.0,67,0.00,,CLR,0.00,VWS V14.01,2013-03-27 23:29:00,
2013-03-27 18:34:00,37.3,27.4,30.31,ESE,110,2.0,3.0,67,0.00,,CLR,0.00,VWS V14.01,2013-03-27 23:34:00,
2013-03-27 18:39:00,36.9,26.6,30.31,East,101,2.0,5.0,66,0.00,,CLR,0.00,VWS V14.01,2013-03-27 23:39:00,
2013-03-27 18:44:00,36.8,26.9,30.31,ESE,120,2.0,5.0,67,0.00,,CLR,0.00,VWS V14.01,2013-03-27 23:44:00,
2013-03-27 18:49:00,36.8,27.2,30.31,ESE,113,2.0,5.0,68,0.00,,CLR,0.00,VWS V14.01,2013-03-27 23:49:00,
2013-03-27 18:54:00,36.7,27.1,30.30,ESE,110,3.0,5.0,68,0.00,,CLR,0.00,VWS V14.01,2013-03-27 23:54:00,
2013-03-27 18:59:00,36.5,27.3,30.30,East,93,0.0,5.0,69,0.00,,CLR,0.00,VWS V14.01,2013-03-27 23:59:00,
2013-03-27 19:04:00,36.4,27.2,30.30,East,99,0.0,1.0,69,0.00,,CLR,0.00,VWS V14.01,2013-03-28 00:04:00,
2013-03-27 19:09:00,36.2,27.0,30.30,ESE,110,1.0,2.0,69,0.00,,CLR,0.00,VWS V14.01,2013-03-28 00:09:00,
2013-03-27 19:14:00,36.0,27.2,30.30,ESE,109,1.0,2.0,70,0.00,,CLR,0.00,VWS V14.01,2013-03-28 00:14:00,
2013-03-27 19:19:00,35.7,27.2,30.30,East,95,0.0,2.0,71,0.00,,CLR,0.00,VWS V14.01,2013-03-28 00:19:00,
2013-03-27 19:24:00,35.4,27.0,30.30,East,95,0.0,2.0,71,0.00,,CLR,0.00,VWS V14.01,2013-03-28 00:24:00,
2013-03-27 19:29:00,35.0,27.2,30.30,East,94,0.0,2.0,73,0.00,,CLR,0.00,VWS V14.01,2013-03-28 00:29:00,
2013-03-27 19:34:00,34.3,26.9,30.30,East,86,0.0,0.0,74,0.00,,CLR,0.00,VWS V14.01,2013-03-28 00:34:00,
2013-03-27 19:39:00,33.7,27.0,30.30,East,86,0.0,0.0,76,0.00,,CLR,0.00,VWS V14.01,2013-03-28 00:39:00,
2013-03-27 19:44:00,33.1,26.7,30.31,East,86,0.0,0.0,77,0.00,,CLR,0.00,VWS V14.01,2013-03-28 00:44:00,
2013-03-27 19:49:00,32.6,26.5,30.31,East,86,0.0,0.0,78,0.00,,CLR,0.00,VWS V14.01,2013-03-28 00:49:00,
2013-03-27 19:54:00,32.2,26.4,30.31,East,86,0.0,0.0,79,0.00,,CLR,0.00,VWS V14.01,2013-03-28 00:54:00,
2013-03-27 19:59:00,32.1,26.3,30.31,East,86,0.0,0.0,79,0.00,,CLR,0.00,VWS V14.01,2013-03-28 00:59:00,
2013-03-27 20:04:00,31.9,26.1,30.31,East,86,0.0,0.0,79,0.00,,CLR,0.00,VWS V14.01,2013-03-28 01:04:00,
2013-03-27 20:09:00,31.7,25.9,30.31,East,86,0.0,0.0,79,0.00,,CLR,0.00,VWS V14.01,2013-03-28 01:09:00,
2013-03-27 20:14:00,31.6,26.1,30.32,East,86,0.0,0.0,80,0.00,,CLR,0.00,VWS V14.01,2013-03-28 01:14:00,
2013-03-27 20:19:00,31.5,26.0,30.32,East,86,0.0,0.0,80,0.00,,CLR,0.00,VWS V14.01,2013-03-28 01:19:00,
2013-03-27 20:24:00,31.4,26.0,30.32,East,86,0.0,0.0,80,0.00,,CLR,0.00,VWS V14.01,2013-03-28 01:24:00,
2013-03-27 20:29:00,31.3,26.2,30.32,East,86,0.0,0.0,81,0.00,,CLR,0.00,VWS V14.01,2013-03-28 01:29:00,
2013-03-27 20:34:00,31.2,26.4,30.32,East,86,0.0,0.0,82,0.00,,CLR,0.00,VWS V14.01,2013-03-28 01:34:00,
2013-03-27 20:39:00,31.0,26.2,30.32,East,86,0.0,0.0,82,0.00,,CLR,0.00,VWS V14.01,2013-03-28 01:39:00,
2013-03-27 20:44:00,30.8,26.0,30.32,East,86,0.0,0.0,82,0.00,,CLR,0.00,VWS V14.01,2013-03-28 01:44:00,
2013-03-27 20:49:00,30.6,26.1,30.33,East,86,0.0,1.0,83,0.00,,CLR,0.00,VWS V14.01,2013-03-28 01:49:00,
2013-03-27 20:54:00,30.6,26.1,30.32,East,86,0.0,1.0,83,0.00,,CLR,0.00,VWS V14.01,2013-03-28 01:54:00,
2013-03-27 20:59:00,30.6,26.1,30.32,East,86,0.0,1.0,83,0.00,,CLR,0.00,VWS V14.01,2013-03-28 01:59:00,
2013-03-27 21:04:00,30.7,26.2,30.32,East,86,0.0,0.0,83,0.00,,CLR,0.00,VWS V14.01,2013-03-28 02:04:00,
2013-03-27 21:09:00,30.6,26.4,30.33,East,86,0.0,0.0,84,0.00,,CLR,0.00,VWS V14.01,2013-03-28 02:09:00,
2013-03-27 21:14:00,30.5,26.2,30.33,East,86,0.0,1.0,84,0.00,,CLR,0.00,VWS V14.01,2013-03-28 02:14:00,
2013-03-27 21:19:00,30.4,26.1,30.33,East,86,0.0,1.0,84,0.00,,CLR,0.00,VWS V14.01,2013-03-28 02:19:00,
2013-03-27 21:24:00,30.2,26.0,30.33,East,86,0.0,1.0,84,0.00,,CLR,0.00,VWS V14.01,2013-03-28 02:24:00,
2013-03-27 21:29:00,30.2,26.2,30.33,East,86,0.0,1.0,85,0.00,,CLR,0.00,VWS V14.01,2013-03-28 02:29:00,
2013-03-27 21:34:00,30.1,25.9,30.33,East,86,1.0,1.0,84,0.00,,CLR,0.00,VWS V14.01,2013-03-28 02:34:00,
2013-03-27 21:39:00,30.1,25.9,30.34,East,86,0.0,1.0,84,0.00,,CLR,0.00,VWS V14.01,2013-03-28 02:39:00,
2013-03-27 21:44:00,30.1,25.9,30.34,East,86,0.0,1.0,84,0.00,,CLR,0.00,VWS V14.01,2013-03-28 02:44:00,
2013-03-27 21:49:00,30.0,25.8,30.34,East,86,0.0,1.0,84,0.00,,CLR,0.00,VWS V14.01,2013-03-28 02:49:00,
2013-03-27 21:54:00,30.0,25.5,30.34,East,86,0.0,1.0,83,0.00,,CLR,0.00,VWS V14.01,2013-03-28 02:54:00,
2013-03-27 21:59:00,30.0,25.5,30.34,East,98,1.0,1.0,83,0.00,,CLR,0.00,VWS V14.01,2013-03-28 02:59:00,
2013-03-27 22:04:00,30.1,25.3,30.34,East,94,2.0,2.0,82,0.00,,CLR,0.00,VWS V14.01,2013-03-28 03:04:00,
2013-03-27 22:09:00,30.3,25.2,30.34,East,91,1.0,3.0,81,0.00,,CLR,0.00,VWS V14.01,2013-03-28 03:09:00,
2013-03-27 22:14:00,30.4,25.0,30.34,East,94,1.0,3.0,80,0.00,,CLR,0.00,VWS V14.01,2013-03-28 03:14:00,
2013-03-27 22:19:00,30.5,24.8,30.35,East,89,1.0,3.0,79,0.00,,CLR,0.00,VWS V14.01,2013-03-28 03:19:00,
2013-03-27 22:24:00,30.5,24.8,30.35,East,98,1.0,3.0,79,0.00,,CLR,0.00,VWS V14.01,2013-03-28 03:24:00,
2013-03-27 22:29:00,30.3,24.6,30.35,East,92,3.0,3.0,79,0.00,,CLR,0.00,VWS V14.01,2013-03-28 03:29:00,
2013-03-27 22:34:00,30.2,24.5,30.34,ESE,103,0.0,1.0,79,0.00,,CLR,0.00,VWS V14.01,2013-03-28 03:34:00,
2013-03-27 22:39:00,30.0,24.6,30.35,ESE,103,0.0,1.0,80,0.00,,CLR,0.00,VWS V14.01,2013-03-28 03:39:00,
2013-03-27 22:44:00,30.0,24.6,30.35,East,95,0.0,1.0,80,0.00,,CLR,0.00,VWS V14.01,2013-03-28 03:44:00,
2013-03-27 22:49:00,29.9,24.5,30.35,East,94,0.0,1.0,80,0.00,,CLR,0.00,VWS V14.01,2013-03-28 03:49:00,
2013-03-27 22:54:00,29.9,24.2,30.35,East,97,1.0,2.0,79,0.00,,CLR,0.00,VWS V14.01,2013-03-28 03:54:00,
2013-03-27 22:59:00,30.0,24.0,30.35,East,96,1.0,2.0,78,0.00,,CLR,0.00,VWS V14.01,2013-03-28 03:59:00,
2013-03-27 23:00:00,30.0,23.7,30.34,East,96,0.0,2.0,77,0.00,,CLR,0.00,VWS V14.01,2013-03-28 04:00:00,
2013-03-27 23:05:00,30.1,23.8,30.35,East,96,1.0,2.0,77,0.00,,CLR,0.00,VWS V14.01,2013-03-28 04:05:00,
2013-03-27 23:10:00,30.1,23.8,30.34,East,90,0.0,2.0,77,0.00,,CLR,0.00,VWS V14.01,2013-03-28 04:10:00,
2013-03-27 23:15:00,30.0,23.7,30.34,East,90,0.0,2.0,77,0.00,,CLR,0.00,VWS V14.01,2013-03-28 04:15:00,
2013-03-27 23:20:00,29.7,23.4,30.34,East,94,1.0,2.0,77,0.00,,CLR,0.00,VWS V14.01,2013-03-28 04:20:00,
2013-03-27 23:25:00,29.7,23.1,30.34,East,98,0.0,2.0,76,0.00,,CLR,0.00,VWS V14.01,2013-03-28 04:25:00,
2013-03-27 23:30:00,29.7,23.1,30.34,East,88,0.0,2.0,76,0.00,,CLR,0.00,VWS V14.01,2013-03-28 04:30:00,
2013-03-27 23:35:00,29.6,23.3,30.34,ENE,71,0.0,1.0,77,0.00,,CLR,0.00,VWS V14.01,2013-03-28 04:35:00,
2013-03-27 23:40:00,29.4,23.1,30.34,ENE,70,0.0,1.0,77,0.00,,CLR,0.00,VWS V14.01,2013-03-28 04:40:00,
2013-03-27 23:45:00,29.4,22.5,30.34,East,92,0.0,2.0,75,0.00,,CLR,0.00,VWS V14.01,2013-03-28 04:45:00,
2013-03-27 23:50:00,29.6,22.4,30.34,East,88,0.0,2.0,74,0.00,,CLR,0.00,VWS V14.01,2013-03-28 04:50:00,
2013-03-27 23:55:00,29.6,22.0,30.34,ENE,60,0.0,2.0,73,0.00,,CLR,0.00,VWS V14.01,2013-03-28 04:55:00,